Regional Weather Roundup
Issued by NWS Upton, NY

Current Version | Previous Version | Text Only | Print | Product List | Glossary Off
Versions: 1 2 3 4 5 6 7 8 9 10 11 12 13 14 15 16 17 18 19 20 21 22 23 24 25 26 27 28 29 30 31 32 33 34 35 36 37 38 39 40 41 42 43 44 45 46 47 48 49 50

000
ASUS41 KOKX 041008
RWROKX

REGIONAL WEATHER ROUNDUP
NATIONAL WEATHER SERVICE NEW YORK NY
600 AM EDT MON MAY 04 2015

NOTE: "FAIR" INDICATES FEW OR NO CLOUDS BELOW 12,000 FEET WITH NO
SIGNIFICANT WEATHER AND/OR OBSTRUCTIONS TO VISIBILITY.

NYZ071-072-176-178-NJZ106-104-041100-
NEW YORK CITY METRO AREA


CITY           SKY/WX    TMP DP  RH WIND       PRES   REMARKS
CENTRAL PARK   CLEAR     57  47  69 NE3       30.21R
LAGUARDIA APRT PTCLDY    56  46  69 S5        30.18R
KENNEDY INTL   CLEAR     51  47  86 CALM      30.20R
NEWARK/LIBERTY PTCLDY    56  44  64 S3        30.18R
BRNX BOT. GARD   N/A     50  48  93 CALM      30.18R
TETERBORO      CLEAR     53  43  68 CALM      30.17R
$$

NYZ177-179-078>081-041100-
LONG ISLAND NEW YORK

CITY           SKY/WX    TMP DP  RH WIND       PRES   REMARKS
FARMINGDALE    CLEAR     50  47  89 CALM      30.19R
ISLIP          PTCLDY    51  48  89 S5        30.18R
SHIRLEY        CLEAR     48  46  93 S3        30.20R FOG
WESTHAMPTON    FOG       40  39  97 SE3       30.21S VSB 1/4
MONTAUK POINT    N/A     50  47  89 S5        30.22R
$$

NYZ052-065-067-041100-
HUDSON VALLEY

CITY           SKY/WX    TMP DP  RH WIND       PRES   REMARKS
WHITE PLAINS   CLEAR     48  45  89 CALM      30.18R
NEWBURGH       CLEAR     50  41  71 CALM      30.18R
MONTGOMERY     CLEAR     44  41  89 CALM      30.17R
POUGHKEEPSIE   CLEAR     47  42  83 CALM      30.17R
ALBANY         PTCLDY    57  39  51 S6        30.15R
$$

NJZ001-105-106-008-010-013-015-019>022-104-041100-
NEW JERSEY

CITY           SKY/WX    TMP DP  RH WIND       PRES   REMARKS
NEWARK/LIBERTY PTCLDY    56  44  64 S3        30.18R
TETERBORO      CLEAR     53  43  68 CALM      30.17R
CALDWELL       CLEAR     47  44  90 CALM      30.19R
MORRISTOWN     CLEAR     45  41  87 CALM      30.18R
SOMERVILLE     CLEAR     45  41  86 CALM      30.17R
SUSSEX         CLEAR     44  40  85 CALM      30.19R
ANDOVER          N/A     47  45  93 CALM      30.19R
TRENTON        CLEAR     51  41  68 CALM      30.18R
MILLVILLE      CLEAR     45  43  93 CALM      30.20R
ATLANTIC CITY  CLEAR     48  44  86 CALM      30.20R
WRIGHTSTOWN    CLEAR     47  46  95 CALM      30.17R
TOMS RIVER     CLEAR     45  39  81 CALM      30.20R
BELMAR         CLEAR     54  43  66 SW3       30.19R
$$

PAZ047>061-062-071-041100-
EASTERN PENNSYLVANIA

CITY           SKY/WX    TMP DP  RH WIND       PRES   REMARKS
PHILADELPHIA   PTCLDY    56  48  74 SW3       30.20R
ALLENTOWN      PTCLDY    48  42  80 CALM      30.18R
SCRANTON       CLEAR     52  38  58 CALM      30.18R
$$

CTZ002-004>006-009-010-012-RIZ004-006-007-MAZ004-011-015-041100-
SOUTHERN NEW ENGLAND
 IN CT

CITY           SKY/WX    TMP DP  RH WIND       PRES   REMARKS
BRADLEY INTL   PTCLDY    48  43  82 CALM      30.18R
HARTFORD       CLEAR     46  32  58 SE8       30.19R
DANBURY        CLEAR     43  39  86 CALM      30.20R
WTRBRY/OXFORD  CLEAR     48  39  71 SW5       30.21R
BRIDGEPORT     CLEAR     49  46  90 NE5       30.19R
MERIDEN        PTCLDY    44  40  85 CALM      30.20R
NEW HAVEN      PTCLDY    43  42  97 CALM      30.20R
CHESTER        FOG       46  45  93 CALM      30.20R VSB 1/4
GROTON         CLEAR     42  39  89 CALM      30.20S FOG
WILLIMANTIC    CLEAR     42  39  89 CALM      30.21R

 IN RI

CITY           SKY/WX    TMP DP  RH WIND       PRES   REMARKS
PROVIDENCE     NOT AVBL
BLOCK ISLAND   CLOUDY    48  45  87 SW12      30.21R VSB 3/4
WESTERLY       CLEAR     41  39  93 CALM      30.21R

 IN MA

CITY           SKY/WX    TMP DP  RH WIND       PRES   REMARKS
BOSTON         PTCLDY    50  45  83 SW10      30.17R
WORCESTER      CLEAR     57  37  47 W13       30.17R
WESTFIELD      CLEAR     44  41  89 CALM      30.18R
PROVINCETOWN   CLEAR     50  48  93 S12       30.20R
NANTUCKET      CLEAR     49  46  90 SW10      30.23R
$$

ANZ330-335-338-340-345-350-353-355-041100-
COASTAL MARINE OBSERVATIONS


STATION/POSITION TIME  SKY/WX   TEMP    WIND        PRES    VSBY  WAVE
                                AIR SEA DIR/SP/G                  HT/PER
                 (UTC)          (F)     (DEG/KT/KT) (MB)    (MI)  (FT/S)
NY HARB ENTRANCE 0950            51 51  180/  4/  4 1022.1          3/12
4S FIRE IS       0903               49                N/A           4/10
20S FIRE ISLAND  0950            50 46  200/  8/  8 1022.5          3/ 8
GREAT SOUTH BAY  0900            53 58  220/  8/  8   N/A
23SW MTP         0950            48 45  180/  8/  8 1022.8          3/ 8
HUDSON CANYON    NOT AVBL
EXECUTION ROCKS  NOT AVBL
WESTERN LI SOUND NOT AVBL
CENTRAL LI SOUND NOT AVBL
EASTERN LI SOUND 0900            46     180/  2/  4   N/A
ROBBINS REEF     0900            55     180/  8/  9 1020.6
$$


>>>>>>>>>>>>>>>>>>>>>>>>>>>> KEY <<<<<<<<<<<<<<<<<<<<<<<<<<<
>                                                          <
>     SKY/WX - SKY CONDITION/PRESENT WEATHER               <
>     TMP    - TEMPERATURE IN FAHRENHEIT                   <
>     DP     - DEWPOINT IN FAHRENHEIT                      <
>     RH     - RELATIVE HUMIDITY IN PERCENT                <
>     WIND   - DIRECTION AND SPEED IN MPH                  <
>     PRES   - MEAN SEA LEVEL PRESSURE IN INCHES OF HG     <
>     WCI    - WIND CHILL INDEX                            <
>     VSB    - VISIBILITY IN MILES                         <
>     HX     - HEAT INDEX                                  <
>     TC     - TEMPERATURE IN CELSIUS                      <
>     VRB    - VARIABLE WIND DIRECTION                     <
>                                                          <
>>>>>>>>>>>>>>>>>>>>>>>>>>>> KEY <<<<<<<<<<<<<<<<<<<<<<<<<<<





USA.gov is the U.S. government's official web portal to all federal, state and local government web resources and services.